�N����,����,�~����,�C��,���x,�C��,����,���ϕ���,�ő�u�ԕ���,�ő厞����,���˗�,�I�_���x,�n�����x,�ő啗���N��,DTYPE
"18/08/12","00:10",0.0,27.4,78.3,1000.5,331.9,1.6,2.9,348.1,0.00,23.3,28.9,"00:01:12",1
"18/08/12","00:20",0.0,27.3,78.6,1000.8,337.9,1.7,3.1,335.4,0.00,23.3,28.9,"00:18:56",1
"18/08/12","00:30",0.0,27.3,78.5,1000.5,329.1,2.0,3.4,336.8,0.00,23.3,28.8,"00:23:20",1
"18/08/12","00:40",0.0,27.1,78.8,1000.5,316.3,1.6,3.3,351.6,0.00,23.1,28.8,"00:34:08",1
"18/08/12","00:50",0.0,27.2,79.2,1000.3,279.5,1.2,3.7,344.8,0.00,23.3,28.8,"00:42:08",1
"18/08/12","01:00",0.0,27.2,79.3,1000.5,311.4,1.2,3.5,336.9,0.00,23.3,28.7,"00:58:08",1
"18/08/12","01:10",0.0,27.3,78.5,1000.8,334.9,2.0,3.7,332.0,0.00,23.3,28.6,"01:06:00",1
"18/08/12","01:20",0.0,27.3,78.1,1000.8,334.1,1.8,3.2,341.8,0.00,23.2,28.5,"01:14:24",1
"18/08/12","01:30",0.0,27.3,78.2,1000.8,322.5,1.3,3.4,330.8,0.00,23.2,28.6,"01:21:52",1
"18/08/12","01:40",0.0,27.3,78.3,1000.5,322.3,1.2,2.2,338.2,0.00,23.2,28.5,"01:34:24",1
"18/08/12","01:50",0.4,27.2,78.7,1000.5,318.6,1.0,2.8,344.1,0.00,23.2,28.4,"01:45:12",1
"18/08/12","02:00",0.0,26.8,80.7,1000.5,329.5,0.7,1.8,342.7,0.00,23.2,28.6,"01:58:40",1
"18/08/12","02:10",0.0,26.4,82.7,1000.8,342.8,1.1,2.4,348.6,0.00,23.3,28.3,"02:08:32",1
"18/08/12","02:20",0.0,26.0,84.2,1000.5,328.7,1.0,2.4,347.0,0.00,23.2,28.3,"02:19:28",1
"18/08/12","02:30",0.0,26.0,84.6,1000.8,334.5,1.5,2.5,333.2,0.00,23.2,28.2,"02:24:16",1
"18/08/12","02:40",0.0,26.0,85.0,1000.8,328.2,1.0,3.5,343.5,0.00,23.3,28.2,"02:39:04",1
"18/08/12","02:50",0.0,25.9,85.3,1000.5,313.3,0.8,1.6,331.8,0.00,23.3,28.2,"02:40:08",1
"18/08/12","03:00",0.0,25.9,85.8,1001.0,317.7,1.3,2.4,336.7,0.00,23.4,28.1,"02:57:52",1
"18/08/12","03:10",0.0,26.1,85.3,1001.0,334.0,1.5,2.6,348.5,0.00,23.5,27.9,"03:05:20",1
"18/08/12","03:20",0.0,26.2,84.6,1001.0,332.7,1.6,2.8,329.5,0.00,23.4,27.8,"03:15:20",1
"18/08/12","03:30",0.0,26.3,84.0,1001.0,321.9,1.3,2.2,330.8,0.00,23.4,27.7,"03:25:12",1
"18/08/12","03:40",0.0,26.3,83.9,1001.5,326.9,1.0,1.9,324.8,0.00,23.4,27.9,"03:30:48",1
"18/08/12","03:50",0.0,26.4,84.3,1001.2,328.6,1.0,1.6,338.1,0.00,23.6,27.9,"03:47:28",1
"18/08/12","04:00",0.0,26.4,84.2,1001.2,305.1,1.2,2.8,334.6,0.00,23.6,27.9,"03:55:36",1
"18/08/12","04:10",0.0,26.4,83.8,1001.2,309.9,1.2,2.4,340.7,0.00,23.5,27.7,"04:02:48",1
"18/08/12","04:20",0.0,26.4,83.8,1001.5,281.8,0.6,1.3,347.5,0.00,23.5,27.7,"04:12:24",1
"18/08/12","04:30",0.0,26.4,84.1,1001.2,297.4,0.8,1.8,235.7,0.00,23.5,27.6,"04:25:20",1
"18/08/12","04:40",0.0,26.3,85.0,1001.5,294.8,0.6,1.1,312.9,0.00,23.6,27.7,"04:37:52",1
"18/08/12","04:50",0.0,26.3,85.9,1001.7,309.6,0.5,0.9,342.3,0.00,23.8,27.7,"04:40:48",1
"18/08/12","05:00",0.0,26.1,86.1,1001.5,279.0,0.6,1.6,244.8,0.00,23.6,27.7,"04:56:00",1
"18/08/12","05:10",0.0,26.1,86.0,1001.7,274.1,0.8,1.3,309.1,0.00,23.6,27.6,"05:07:28",1
"18/08/12","05:20",0.0,26.2,85.7,1001.7,279.9,1.1,2.4,252.2,0.00,23.7,27.5,"05:16:32",1
"18/08/12","05:30",0.0,26.3,85.5,1001.9,297.5,1.1,2.1,320.8,0.00,23.7,27.6,"05:28:40",1
"18/08/12","05:40",0.0,26.4,85.3,1001.9,279.5,0.8,1.7,264.4,0.00,23.8,27.4,"05:35:36",1
"18/08/12","05:50",0.0,26.5,85.3,1001.9,310.3,1.2,2.2,341.1,0.00,23.9,27.5,"05:43:20",1
"18/08/12","06:00",0.0,26.5,85.5,1002.2,282.1,0.7,1.3,312.6,0.00,23.9,27.3,"05:50:40",1
"18/08/12","06:10",0.0,26.5,85.6,1002.4,318.9,1.1,2.5,321.2,0.00,23.9,27.5,"06:05:12",1
"18/08/12","06:20",0.0,26.7,85.3,1002.4,335.5,1.3,2.4,340.2,0.00,24.1,27.6,"06:11:44",1
"18/08/12","06:30",0.0,26.9,84.8,1002.6,329.1,1.2,2.1,336.3,0.01,24.2,27.5,"06:26:08",1
"18/08/12","06:40",0.0,27.1,84.7,1002.6,325.2,1.2,2.0,329.4,0.02,24.3,27.6,"06:35:44",1
"18/08/12","06:50",0.0,27.4,84.3,1002.6,305.5,0.7,1.4,345.8,0.03,24.6,27.6,"06:47:36",1
"18/08/12","07:00",0.0,27.6,82.9,1002.6,316.1,1.0,1.8,326.3,0.02,24.5,27.5,"06:52:48",1
"18/08/12","07:10",0.0,27.6,82.7,1002.6,269.0,0.5,1.1,255.1,0.01,24.4,27.6,"07:06:56",1
"18/08/12","07:20",0.0,27.8,83.0,1002.6,265.0,0.6,1.3,226.7,0.04,24.7,27.7,"07:12:40",1
"18/08/12","07:30",0.0,28.0,82.4,1002.6,259.7,0.2,0.9,258.3,0.06,24.8,27.7,"07:22:32",1
"18/08/12","07:40",0.0,28.8,79.7,1002.6,195.4,0.2,0.9,157.5,0.13,25.0,28.1,"07:38:56",1
"18/08/12","07:50",0.0,28.8,79.2,1002.2,139.9,0.3,1.0,118.7,0.12,24.9,28.2,"07:44:40",1
"18/08/12","08:00",0.0,29.7,76.6,1002.9,129.9,0.3,1.1,114.5,0.19,25.2,28.3,"07:59:04",1
"18/08/12","08:10",0.0,29.5,75.9,1003.4,191.2,0.7,1.3,210.4,0.16,24.8,28.4,"08:07:44",1
"18/08/12","08:20",0.0,29.9,74.6,1003.6,185.3,0.6,1.3,194.4,0.17,24.9,28.3,"08:18:16",1
"18/08/12","08:30",0.0,30.3,73.2,1003.8,47.4,0.8,1.9,333.1,0.18,25.0,28.7,"08:25:04",1
"18/08/12","08:40",0.0,30.3,73.6,1004.1,32.4,0.6,1.3,18.3,0.15,25.1,28.7,"08:35:20",1
"18/08/12","08:50",0.0,30.1,73.4,1004.1,340.5,0.7,1.4,352.8,0.16,24.9,28.8,"08:45:28",1
"18/08/12","09:00",0.0,30.2,73.3,1003.8,339.1,1.0,2.6,337.0,0.11,24.9,29.0,"08:52:00",1
"18/08/12","09:10",0.0,30.1,72.5,1003.4,21.5,0.8,1.7,4.4,0.06,24.6,29.0,"09:04:24",1
"18/08/12","09:20",0.0,30.6,71.2,1003.6,44.5,0.8,1.8,63.8,0.14,24.8,29.0,"09:16:24",1
"18/08/12","09:30",0.0,30.8,70.9,1003.8,26.9,0.8,1.7,5.0,0.18,24.9,29.2,"09:23:52",1
"18/08/12","09:40",0.0,31.1,70.3,1003.6,25.6,1.1,2.1,353.7,0.20,25.1,29.4,"09:38:16",1
"18/08/12","09:50",0.0,31.2,70.0,1003.6,30.2,0.8,1.8,6.2,0.17,25.1,29.5,"09:41:20",1
"18/08/12","10:00",0.0,31.1,70.0,1003.8,33.2,1.0,2.9,348.7,0.13,25.0,29.5,"09:56:16",1
"18/08/12","10:10",0.0,31.0,69.8,1004.1,325.9,1.0,2.7,356.4,0.12,24.9,29.5,"10:08:48",1
"18/08/12","10:20",0.0,31.0,70.1,1003.6,337.7,1.5,2.8,5.2,0.12,24.9,29.6,"10:13:04",1
"18/08/12","10:30",0.0,31.4,69.7,1003.8,279.1,1.2,2.5,0.5,0.19,25.2,29.8,"10:20:32",1
"18/08/12","10:40",0.0,31.7,68.1,1003.6,340.1,1.1,2.5,341.4,0.22,25.1,29.8,"10:35:20",1
"18/08/12","10:50",0.0,31.7,68.9,1003.6,324.2,1.2,3.5,340.7,0.20,25.3,30.0,"10:44:16",1
"18/08/12","11:00",0.0,32.0,66.8,1003.8,314.2,0.7,1.9,233.5,0.20,25.1,29.9,"10:58:08",1
"18/08/12","11:10",0.0,32.6,65.4,1003.8,199.1,1.1,3.1,228.3,0.23,25.3,30.1,"11:00:40",1
"18/08/12","11:20",0.0,33.7,63.0,1004.5,208.5,1.1,3.4,203.9,0.40,25.7,30.3,"11:14:32",1
"18/08/12","11:30",0.0,33.8,62.0,1004.5,214.8,1.5,5.2,214.4,0.44,25.5,30.7,"11:27:28",1
"18/08/12","11:40",0.0,34.2,59.5,1004.5,261.9,1.2,3.3,344.1,0.39,25.2,30.9,"11:32:40",1
"18/08/12","11:50",0.0,34.1,59.9,1004.5,217.6,1.5,5.2,225.5,0.33,25.2,31.2,"11:42:16",1
"18/08/12","12:00",0.0,35.4,55.1,1005.0,330.2,1.2,3.3,351.3,0.61,25.0,31.5,"11:53:44",1
"18/08/12","12:10",0.0,33.6,58.5,1004.8,263.3,1.3,3.9,227.3,0.23,24.4,31.5,"12:08:08",1
"18/08/12","12:20",0.0,34.1,57.2,1004.5,308.1,1.6,4.5,347.2,0.29,24.5,31.8,"12:13:28",1
"18/08/12","12:30",0.0,34.1,57.8,1004.1,216.8,1.0,2.2,218.0,0.23,24.6,31.8,"12:23:04",1
"18/08/12","12:40",0.0,34.2,57.5,1004.8,348.5,1.1,2.8,226.6,0.36,24.6,32.0,"12:35:12",1
"18/08/12","12:50",0.0,35.5,52.4,1004.5,242.4,1.6,4.0,239.1,0.48,24.3,32.0,"12:49:28",1
"18/08/12","13:00",0.0,35.2,54.5,1004.3,226.4,2.1,4.0,224.2,0.37,24.7,32.3,"12:56:00",1
"18/08/12","13:10",0.0,35.2,52.9,1004.1,277.5,2.0,4.5,229.9,0.59,24.2,32.4,"13:09:20",1
"18/08/12","13:20",0.0,36.1,50.6,1004.5,234.0,2.0,5.0,226.3,0.59,24.3,32.7,"13:14:48",1
"18/08/12","13:30",0.0,35.3,53.5,1004.1,222.3,1.3,3.9,332.8,0.40,24.5,33.2,"13:25:04",1
"18/08/12","13:40",0.0,36.3,51.4,1003.8,290.0,1.1,3.3,209.3,0.47,24.7,33.2,"13:34:56",1
"18/08/12","13:50",0.0,36.0,50.6,1004.1,297.9,1.6,3.5,342.3,0.51,24.2,33.5,"13:41:44",1
"18/08/12","14:00",0.0,35.4,51.6,1004.1,209.4,2.0,3.5,218.4,0.32,23.9,33.4,"13:55:44",1
"18/08/12","14:10",0.0,35.1,52.0,1003.8,245.3,1.8,6.0,230.3,0.31,23.8,33.4,"14:00:02",1
"18/08/12","14:20",0.0,34.8,53.4,1003.6,230.2,1.3,4.4,203.6,0.14,24.0,33.3,"14:10:08",1
"18/08/12","14:30",0.0,34.7,53.1,1003.4,216.2,2.3,5.6,205.5,0.19,23.8,33.3,"14:21:52",1
"18/08/12","14:40",0.0,35.1,52.5,1003.1,209.0,1.8,5.9,215.1,0.20,24.0,33.3,"14:36:40",1
"18/08/12","14:50",0.0,34.3,55.0,1003.4,238.7,1.6,3.7,220.9,0.13,24.0,33.2,"14:40:56",1
"18/08/12","15:00",0.0,34.3,55.3,1002.9,238.3,1.5,3.9,236.7,0.10,24.1,32.8,"14:54:00",1
"18/08/12","15:10",0.0,33.8,56.9,1002.9,230.9,1.8,3.6,219.5,0.08,24.1,32.8,"15:00:02",1
"18/08/12","15:20",0.0,33.6,57.0,1002.2,202.8,2.8,5.7,201.1,0.06,23.9,32.7,"15:19:20",1
"18/08/12","15:30",0.0,33.3,57.8,1002.4,212.6,3.0,7.0,223.5,0.05,23.9,32.3,"15:20:24",1
"18/08/12","15:40",0.0,33.0,59.0,1002.2,219.1,2.5,4.8,224.2,0.04,24.0,32.2,"15:37:28",1
"18/08/12","15:50",0.0,32.8,58.8,1001.9,223.9,2.5,5.9,225.0,0.04,23.7,32.1,"15:46:00",1
"18/08/12","16:00",0.0,32.6,58.7,1001.5,221.7,2.2,5.7,222.6,0.05,23.5,31.8,"15:51:52",1
"18/08/12","16:10",0.0,32.5,59.1,1001.7,232.5,1.6,5.2,222.1,0.05,23.5,31.8,"16:06:56",1
"18/08/12","16:20",0.0,32.4,59.6,1001.9,246.4,1.3,2.9,223.9,0.05,23.6,31.7,"16:17:36",1
"18/08/12","16:30",0.0,32.3,60.5,1001.7,251.0,1.1,2.7,231.5,0.04,23.7,31.7,"16:20:40",1
"18/08/12","16:40",0.0,32.1,61.8,1001.9,319.5,1.5,3.6,355.4,0.04,23.9,31.6,"16:37:28",1
"18/08/12","16:50",0.0,32.2,62.4,1001.7,328.8,1.0,2.2,343.6,0.05,24.1,31.4,"16:47:12",1
"18/08/12","17:00",0.0,32.3,62.0,1001.5,311.3,1.0,2.9,346.5,0.06,24.1,31.4,"16:58:48",1
"18/08/12","17:10",0.0,33.3,60.6,1001.9,302.2,1.1,2.8,344.8,0.15,24.7,31.2,"17:06:32",1
"18/08/12","17:20",0.0,33.4,59.6,1002.2,327.9,0.8,3.2,0.1,0.15,24.5,31.4,"17:13:44",1
"18/08/12","17:30",0.0,32.9,59.9,1002.6,318.4,1.2,3.2,343.3,0.05,24.1,31.3,"17:20:48",1
"18/08/12","17:40",0.0,32.4,62.2,1002.4,323.3,0.6,2.2,339.2,0.02,24.3,31.4,"17:38:48",1
"18/08/12","17:50",0.0,32.1,63.1,1002.4,298.1,0.5,2.4,224.0,0.01,24.2,31.2,"17:44:40",1
"18/08/12","18:00",0.0,32.0,63.0,1002.2,94.3,0.5,1.7,227.5,0.01,24.1,31.1,"17:59:12",1
"18/08/12","18:10",0.0,32.0,64.4,1002.2,2.1,0.3,1.0,341.9,0.01,24.5,30.9,"18:06:48",1
"18/08/12","18:20",0.0,31.9,65.0,1002.4,268.5,0.5,1.6,231.1,0.02,24.5,31.0,"18:15:28",1
"18/08/12","18:30",0.0,31.7,65.8,1002.6,357.8,1.0,1.9,357.5,0.01,24.6,31.0,"18:22:48",1
"18/08/12","18:40",0.0,31.5,67.6,1002.6,353.3,0.6,1.1,348.2,0.00,24.8,30.8,"18:38:00",1
"18/08/12","18:50",0.0,31.2,69.4,1002.6,1.3,0.7,1.4,356.5,0.00,25.0,30.9,"18:41:36",1
"18/08/12","19:00",0.0,30.7,70.8,1002.6,357.5,0.6,1.0,358.8,0.00,24.8,30.7,"18:51:36",1
"18/08/12","19:10",0.0,30.2,72.3,1002.4,354.5,0.5,1.1,358.9,0.00,24.7,30.7,"19:05:12",1
"18/08/12","19:20",0.0,29.9,73.4,1002.6,291.8,0.6,2.2,346.2,0.00,24.7,30.5,"19:19:52",1
"18/08/12","19:30",0.0,29.8,73.7,1002.6,350.5,0.8,2.6,349.5,0.00,24.6,30.3,"19:20:40",1
"18/08/12","19:40",0.0,29.4,75.4,1002.2,339.8,0.8,1.4,332.4,0.00,24.6,30.2,"19:32:40",1
"18/08/12","19:50",0.0,29.1,76.7,1002.6,332.2,0.8,1.3,346.5,0.00,24.6,30.1,"19:42:08",1
"18/08/12","20:00",0.0,29.0,77.9,1002.6,332.6,0.6,1.1,337.9,0.00,24.8,30.1,"19:54:32",1
"18/08/12","20:10",0.0,28.9,77.7,1003.1,353.7,0.7,1.6,6.3,0.00,24.7,29.9,"20:05:52",1
"18/08/12","20:20",0.0,28.8,77.7,1003.1,355.1,0.7,1.0,353.6,0.00,24.6,30.0,"20:11:52",1
"18/08/12","20:30",0.0,28.7,77.8,1003.6,353.3,0.8,1.4,342.5,0.00,24.5,29.7,"20:27:04",1
"18/08/12","20:40",0.0,28.1,79.4,1003.6,312.4,0.8,1.4,340.7,0.00,24.2,29.7,"20:33:36",1
"18/08/12","20:50",0.0,28.0,80.5,1003.8,320.0,0.7,2.1,316.6,0.00,24.4,29.7,"20:45:36",1
"18/08/12","21:00",0.0,28.0,80.3,1003.8,268.1,0.7,1.3,320.5,0.00,24.3,29.6,"20:50:24",1
"18/08/12","21:10",0.0,27.9,80.3,1003.8,292.0,0.7,1.4,340.2,0.00,24.2,29.3,"21:00:02",1
"18/08/12","21:20",0.0,27.9,80.5,1004.5,330.5,1.2,1.8,336.9,0.00,24.3,29.3,"21:10:40",1
"18/08/12","21:30",0.0,27.7,80.9,1004.3,6.6,0.5,1.7,2.0,0.00,24.2,29.2,"21:22:32",1
"18/08/12","21:40",0.0,27.4,81.7,1004.3,308.5,0.8,1.3,316.7,0.00,24.0,29.2,"21:38:16",1
"18/08/12","21:50",0.0,27.4,81.6,1004.5,296.0,1.0,2.0,328.4,0.00,24.0,29.0,"21:43:52",1
"18/08/12","22:00",0.0,27.7,80.2,1004.5,334.3,0.8,2.2,344.7,0.00,24.0,28.9,"21:50:56",1
"18/08/12","22:10",0.0,27.4,81.1,1004.3,341.6,1.2,2.0,347.4,0.00,23.9,28.8,"22:07:36",1
"18/08/12","22:20",0.0,26.8,82.8,1004.5,337.8,1.3,2.0,337.2,0.00,23.7,28.8,"22:17:04",1
"18/08/12","22:30",0.0,26.8,82.9,1004.5,271.5,0.7,1.9,313.7,0.00,23.7,28.8,"22:20:24",1
"18/08/12","22:40",0.0,26.9,82.0,1004.5,269.1,1.0,2.0,232.2,0.00,23.6,28.7,"22:32:48",1
"18/08/12","22:50",0.0,26.9,81.4,1004.8,311.3,1.1,1.6,313.7,0.00,23.5,28.7,"22:44:48",1
"18/08/12","23:00",0.0,27.0,80.8,1005.0,347.7,1.0,1.8,339.2,0.00,23.5,28.5,"22:58:56",1
"18/08/12","23:10",0.0,26.5,83.0,1004.8,310.6,1.1,1.4,324.0,0.00,23.4,28.5,"23:02:24",1
"18/08/12","23:20",0.0,26.3,83.3,1005.0,293.4,0.5,1.1,313.3,0.00,23.3,28.5,"23:13:28",1
"18/08/12","23:30",0.0,26.4,83.5,1004.8,283.1,0.8,1.3,318.7,0.00,23.4,28.3,"23:22:24",1
"18/08/12","23:40",0.0,26.3,83.4,1005.0,301.7,0.6,1.1,334.3,0.00,23.3,28.3,"23:38:56",1
"18/08/12","23:50",0.0,26.2,84.3,1005.0,286.8,0.6,1.7,336.6,0.00,23.4,28.1,"23:49:36",1
"18/08/12","24:00",0.0,26.1,84.6,1005.0,302.8,0.6,1.3,329.6,0.00,23.3,28.0,"23:50:16",1
